Content
SEND FEEDBACK

Daily
Averages
Monthly
Summary
United States of America

ELY, NEVADA


Home > North America > United States > Nevada
Elevation: 6262 feet     Latitude: 39 17N     Longitude: 114 51W

WEATHER
 
SELECT A DAY
Number of Records: 192,223;   Date Range: 1/1/95 - 10/1/14
 
SHARE

PRINT THIS DATA

[ ← Previous Day ]
WEATHER ALMANAC - JANUARY 31, 2013
[ Next Day → ]
[ °C ]   °F
Weather ElementAverageHighLow
Temperature30.2 °F43 °F (2:53 pm)18 °F (6:53 am)
Dewpoint22.9 °F27 °F (1:53 am)16 °F (6:53 am)
Humidity76 %92 % (6:53 am)53 % (2:53 pm)
Barometer30.33 in30.42 in (6:53 am)30.24 in (1:53 pm)
Wind Speed4.9 mph12.7 mph (10:53 pm)
Weather ElementAverage
Visibility10 mi
Wind DirectionESE (117.8 °)

Weather ElementTotal
Precipitation---
Heating Degree Days34.5 (Base 65)
Averaged from 23 records on January 31, 2013
WEATHER CONDITIONS BREAKOUT
WIND DIRECTION BREAKOUT
WEATHER BY HOUR - JANUARY 31, 2013
[ °C ]   °F
Local TimeTemperatureDewpointHumidityBarometerVisibilityWind DirectionWind SpeedGust SpeedPrecipitationEventsConditions
1:53 AM34.0 °F27.0 °F75 %30.32 in10.0 miCalmOvercast
2:53 AM28.9 °F24.1 °F82 %30.32 in10.0 miWNW (290°)9.2 mphScattered Clouds
3:53 AM30.0 °F25.0 °F82 %30.32 in10.0 miNW (320°)4.6 mphOvercast
4:53 AM27.0 °F23.0 °F85 %30.34 in10.0 miNNW (330°)3.5 mphMostly Cloudy
5:53 AM28.0 °F23.0 °F81 %30.35 in10.0 miNW (310°)3.5 mphClear
6:53 AM18.0 °F16.0 °F92 %30.42 in10.0 miNE (40°)3.5 mphPartly Cloudy
7:53 AM23.0 °F19.0 °F85 %30.41 in10.0 miSouth (170°)6.9 mphScattered Clouds
8:53 AM30.9 °F24.1 °F76 %30.39 in10.0 miSE (130°)5.8 mphClear
9:53 AM34.0 °F25.0 °F70 %30.37 in10.0 miSouth (190°)3.5 mphClear
10:53 AM39.0 °F25.0 °F57 %30.34 in10.0 miCalmClear
11:53 AM39.9 °F25.0 °F55 %30.30 in10.0 miCalmClear
12:53 PM41.0 °F26.1 °F55 %30.26 in10.0 miCalmClear
1:53 PM41.0 °F27.0 °F57 %30.24 in10.0 miENE (70°)5.8 mphClear
2:53 PM43.0 °F27.0 °F53 %30.26 in10.0 miCalmClear
3:53 PM42.1 °F27.0 °F55 %30.26 in10.0 miNorth (10°)5.8 mphClear
4:53 PM35.1 °F27.0 °F72 %30.30 in10.0 miCalmClear
5:53 PM30.9 °F26.1 °F82 %30.31 in10.0 miVariable3.5 mphClear
6:53 PM24.1 °F21.0 °F88 %30.41 in10.0 miCalmClear
7:53 PM24.1 °F21.0 °F88 %30.39 in10.0 miSouth (170°)10.4 mphClear
8:53 PM21.0 °F18.0 °F88 %30.37 in10.0 miSouth (170°)9.2 mphClear
9:53 PM19.9 °F18.0 °F92 %30.35 in10.0 miSouth (170°)11.5 mphClear
10:53 PM19.9 °F17.1 °F89 %30.33 in10.0 miSouth (170°)12.7 mphClear
11:53 PM19.0 °F16.0 °F88 %30.32 in10.0 miSouth (170°)12.7 mphClear
Hourly data recorded from KELY, located miles away from Ely, Nevada







STORIES FROM OUR PARTNERS